Temp
28 29 30 31 32 32 32 31 30 31 32 30 31 31 32 31 29 29 29 28 28 27 26 25 24 23 22 21 19 19 19 18 17 16 17 17 17 18 17 19 19 18 19 19
30 29 31 32 32 32 31 31 31 32 31 31 31 31 33 32 31 30 29 29 28 28 27 25 24 24 23 21 20 19 18 17 17 16 17 18 18 18 18 19 18 18 19 18
30 32 32 32 31 30 31 31 31 31 31 31 31 31 33 32 31 30 30 29 29 28 28 26 25 24 23 22 20 19 18 17 17 17 17 18 18 18 17 18 19 18 18 18
31 32 31 31 30 31 30 32 31 31 30 29 32 30 32 33 32 32 30 30 30 29 28 27 26 25 24 23 21 19 18 17 17 17 18 18 18 18 18 18 19 19 18 18
30 31 31 30 31 32 31 32 31 31 30 30 31 31 33 34 33 33 32 31 30 30 29 28 26 25 25 24 21 20 18 17 17 17 18 17 18 19 19 19 20 20 19 18
31 31 31 31 32 32 32 30 31 31 31 29 31 32 33 34 33 33 34 33 31 31 30 29 27 26 25 24 22 21 18 18 17 17 17 17 18 18 19 20 20 20 20 19
30 30 31 30 30 32 31 31 29 29 30 30 34 32 33 34 34 34 34 33 33 32 30 29 28 27 26 25 23 22 19 17 18 17 17 17 18 19 20 20 20 20 21 21
30 30 31 32 30 31 30 31 31 29 31 32 33 31 33 34 34 34 34 34 33 32 32 30 28 27 26 25 24 22 20 18 18 19 19 19 19 18 19 19 20 20 21 21
31 30 32 32 32 31 31 30 32 31 32 32 33 33 35 35 34 34 34 33 33 32 32 31 29 27 26 25 24 23 21 19 19 19 19 20 20 19 19 19 19 19 20 21
31 30 32 32 31 32 31 33 31 31 28 28 32 32 32 33 33 34 34 34 33 32 31 31 29 28 27 25 24 23 22 20 20 19 19 19 18 20 19 19 19 19 19 20
31 31 31 32 30 31 31 30 31 32 32 31 30 32 34 33 33 33 34 33 33 32 31 30 29 28 27 25 25 23 23 21 20 20 20 19 19 18 19 19 19 19 19 19
32 31 30 31 33 33 32 32 32 30 29 31 31 32 35 34 34 33 33 33 32 31 30 29 28 28 27 26 25 24 23 23 21 21 20 20 19 19 19 18 19 18 19 19
31 30 29 30 32 33 31 32 32 33 33 31 30 32 35 34 34 33 33 33 32 30 29 29 28 27 27 26 25 25 24 23 23 22 21 20 20 20 20 19 19 19 18 18
28 30 29 30 31 32 30 31 31 32 31 31 31 32 33 33 33 33 33 32 31 30 29 28 28 27 26 26 25 25 24 24 23 22 21 20 20 20 20 20 19 19 19 18
28 27 29 30 31 31 30 30 30 30 30 30 31 31 33 33 33 33 33 32 31 30 29 28 28 26 25 25 24 24 24 23 23 22 21 22 21 20 20 20 19 19 19 19
28 27 28 28 29 30 29 30 30 30 30 30 30 30 32 32 32 32 32 32 31 30 29 28 27 26 25 24 23 23 23 23 23 22 21 21 21 21 20 20 20 19 19 18
27 27 27 26 28 28 27 28 29 29 30 30 29 31 32 32 32 32 31 30 29 28 29 28 27 26 25 24 23 22 22 22 22 21 21 21 20 20 19 19 19 19 18 19
25 25 26 25 26 23 28 30 30 29 29 30 30 31 31 31 31 29 28 27 27 28 27 27 26 26 25 24 23 22 22 21 21 20 20 20 20 19 19 19 18 18 18 19
26 25 24 24 24 26 27 28 28 28 28 29 29 29 29 29 28 28 25 25 25 25 26 25 25 24 23 23 23 22 21 20 20 20 19 19 19 19 19 19 18 18 18 19
26 25 24 23 22 23 26 28 26 27 25 28 28 27 27 26 27 27 24 24 24 25 24 24 24 23 22 22 22 21 21 20 19 19 19 19 19 19 18 19 20 19 17 17
23 23 23 23 23 24 26 27 26 22 24 24 23 23 23 24 23 22 23 23 24 24 23 23 23 22 22 21 21 20 20 20 20 20 18 19 18 18 18 18 19 17 18 16
22 20 21 22 22 21 26 26 24 24 22 22 22 21 21 21 21 22 22 23 23 23 23 22 22 22 19 20 20 18 19 20 20 19 18 17 18 17 17 17 17 17 17 17
21 22 22 22 21 20 21 22 22 21 21 21 21 21 20 21 21 21 21 22 23 22 22 22 22 20 18 18 17 17 20 20 19 18 16 16 16 16 16 16 17 17 18 15
21 21 20 18 22 22 19 20 21 21 20 20 19 20 20 20 20 21 21 21 22 22 22 22 20 18 18 18 17 17 19 19 18 18 16 16 15 14 14 15 16 16 15 15
21 20 19 18 19 19 21 20 20 20 19 18 18 19 19 19 20 20 20 20 21 21 21 21 19 18 18 17 17 16 18 16 15 16 16 15 16 16 15 14 14 16 15 14
20 20 20 20 20 20 19 18 18 17 18 18 18 18 18 19 19 19 19 19 19 20 20 19 19 18 17 17 16 15 14 14 14 15 15 14 15 17 16 16 15 15 14 14
Height
1511 1509 1505 1497 1492 1488 1490 1497 1501 1494 1492 1500 1494 1491 1485 1489 1497 1499 1501 1504 1508 1513 1517 1521 1526 1530 1534 1537 1539 1542 1546 1548 1551 1554 1558 1562 1565 1568 1570 1574 1576 1578 1580 1583
1502 1505 1494 1491 1489 1489 1494 1499 1498 1489 1494 1496 1492 1490 1478 1481 1487 1492 1496 1497 1502 1507 1511 1517 1522 1526 1530 1534 1537 1539 1542 1544 1548 1551 1556 1560 1563 1566 1569 1572 1573 1577 1579 1581
1497 1487 1488 1490 1490 1497 1496 1496 1492 1494 1491 1493 1489 1486 1473 1475 1482 1486 1490 1493 1495 1500 1506 1512 1517 1521 1526 1530 1534 1536 1539 1541 1544 1547 1552 1557 1560 1564 1565 1569 1570 1574 1577 1579
1490 1488 1489 1490 1492 1493 1497 1484 1488 1492 1501 1505 1483 1503 1477 1469 1474 1479 1484 1487 1490 1494 1500 1506 1512 1517 1521 1525 1530 1534 1536 1539 1542 1545 1550 1554 1557 1560 1563 1567 1570 1573 1575 1577
1488 1486 1486 1493 1489 1486 1491 1482 1487 1489 1495 1495 1488 1493 1471 1462 1469 1468 1471 1478 1482 1487 1492 1498 1505 1512 1517 1522 1526 1530 1533 1536 1540 1543 1548 1551 1555 1559 1562 1566 1569 1570 1573 1575
1484 1481 1483 1483 1483 1484 1485 1490 1488 1488 1489 1503 1480 1480 1471 1459 1463 1463 1464 1466 1474 1480 1485 1491 1499 1507 1512 1517 1523 1527 1529 1532 1536 1539 1544 1548 1552 1555 1560 1562 1566 1568 1571 1572
1482 1481 1480 1484 1485 1479 1483 1488 1502 1504 1497 1494 1457 1469 1462 1453 1456 1460 1462 1464 1467 1472 1479 1485 1492 1499 1507 1512 1518 1522 1525 1528 1532 1536 1540 1544 1549 1552 1557 1559 1562 1565 1567 1569
1479 1483 1469 1474 1480 1477 1482 1481 1487 1503 1487 1469 1452 1479 1463 1451 1455 1457 1459 1460 1464 1467 1469 1478 1485 1493 1501 1508 1513 1518 1522 1524 1528 1532 1536 1540 1544 1550 1553 1557 1560 1562 1564 1565
1467 1473 1460 1464 1470 1476 1476 1484 1470 1478 1467 1474 1460 1454 1445 1444 1451 1451 1451 1456 1458 1464 1467 1471 1479 1488 1495 1502 1508 1513 1517 1521 1524 1529 1532 1536 1541 1545 1549 1553 1556 1558 1561 1563
1462 1478 1461 1464 1469 1468 1471 1464 1480 1475 1501 1500 1468 1464 1460 1448 1453 1452 1451 1453 1457 1463 1466 1468 1474 1482 1490 1498 1504 1509 1514 1517 1520 1526 1529 1533 1536 1539 1544 1548 1551 1554 1557 1558
1464 1466 1463 1459 1469 1467 1469 1474 1470 1465 1463 1478 1481 1461 1439 1449 1451 1451 1450 1452 1455 1460 1463 1466 1470 1478 1486 1494 1499 1505 1510 1514 1518 1522 1526 1530 1532 1536 1538 1543 1546 1548 1552 1554
1459 1460 1470 1461 1450 1452 1453 1454 1456 1474 1483 1468 1468 1462 1433 1441 1447 1450 1451 1452 1454 1461 1461 1463 1468 1474 1481 1489 1495 1500 1505 1510 1513 1517 1522 1525 1529 1533 1536 1538 1542 1544 1545 1548
1458 1465 1475 1466 1451 1443 1451 1453 1451 1446 1446 1461 1469 1456 1432 1438 1444 1446 1447 1449 1453 1458 1459 1461 1466 1471 1478 1484 1490 1495 1500 1505 1510 1514 1517 1521 1525 1529 1533 1536 1538 1540 1542 1544
1465 1457 1460 1464 1451 1442 1456 1451 1451 1450 1457 1455 1453 1448 1439 1439 1440 1444 1444 1448 1452 1455 1456 1459 1463 1469 1475 1481 1486 1492 1496 1501 1505 1509 1513 1516 1520 1524 1528 1531 1534 1536 1538 1540
1466 1469 1461 1452 1447 1445 1449 1452 1452 1455 1452 1461 1452 1446 1438 1436 1437 1441 1442 1447 1451 1453 1455 1457 1461 1466 1472 1477 1482 1487 1492 1496 1501 1505 1507 1509 1514 1518 1522 1526 1529 1531 1534 1536
1462 1466 1461 1459 1449 1449 1452 1450 1449 1449 1451 1452 1452 1450 1442 1440 1441 1443 1445 1446 1447 1450 1454 1457 1460 1464 1469 1473 1477 1482 1486 1490 1496 1499 1501 1505 1509 1513 1516 1519 1522 1525 1528 1530
1460 1460 1462 1464 1455 1451 1458 1453 1450 1448 1443 1446 1453 1444 1440 1441 1441 1441 1444 1447 1451 1453 1452 1455 1458 1462 1466 1470 1474 1478 1482 1486 1490 1493 1497 1502 1505 1509 1512 1516 1519 1521 1523 1526
1464 1464 1460 1466 1461 1474 1446 1438 1439 1442 1440 1440 1440 1438 1440 1440 1441 1446 1448 1455 1455 1452 1453 1454 1457 1459 1462 1466 1470 1474 1478 1482 1485 1489 1494 1498 1501 1503 1507 1511 1515 1517 1519 1522
1460 1461 1464 1469 1463 1449 1443 1440 1443 1444 1443 1443 1444 1441 1441 1443 1445 1449 1454 1458 1456 1453 1452 1453 1455 1458 1460 1463 1466 1470 1474 1478 1482 1486 1489 1492 1496 1499 1502 1506 1509 1512 1514 1515
1452 1453 1459 1461 1468 1464 1443 1437 1443 1447 1452 1442 1445 1448 1447 1450 1451 1452 1458 1456 1454 1452 1452 1452 1454 1456 1457 1461 1464 1467 1471 1475 1478 1482 1485 1489 1492 1494 1498 1499 1497 1501 1508 1512
1454 1455 1457 1454 1457 1446 1442 1442 1445 1464 1456 1450 1454 1456 1459 1462 1462 1459 1457 1455 1453 1451 1451 1452 1453 1455 1457 1460 1463 1466 1469 1470 1472 1475 1477 1481 1486 1487 1489 1492 1494 1496 1501 1507
1455 1464 1460 1452 1457 1457 1440 1440 1447 1450 1453 1456 1460 1463 1465 1464 1462 1460 1457 1454 1452 1450 1450 1451 1453 1455 1456 1459 1461 1463 1464 1467 1470 1474 1477 1480 1482 1483 1486 1488 1493 1498 1500 1502
1457 1451 1450 1447 1451 1453 1451 1450 1449 1454 1454 1456 1459 1462 1464 1463 1461 1459 1457 1454 1451 1449 1449 1450 1452 1454 1454 1456 1458 1460 1462 1466 1469 1472 1475 1478 1480 1482 1485 1490 1492 1495 1496 1502
1453 1452 1456 1458 1441 1446 1450 1456 1452 1453 1455 1456 1459 1462 1463 1461 1459 1457 1456 1454 1451 1449 1449 1449 1451 1453 1454 1456 1457 1460 1462 1465 1468 1470 1472 1475 1478 1480 1484 1488 1490 1493 1494 1503
1451 1450 1454 1455 1456 1449 1445 1452 1450 1452 1455 1457 1459 1461 1460 1458 1456 1456 1454 1453 1451 1449 1448 1448 1450 1452 1453 1454 1456 1459 1461 1465 1468 1471 1473 1476 1479 1483 1485 1487 1488 1489 1493 1503
1451 1447 1447 1442 1445 1447 1447 1448 1450 1453 1454 1455 1455 1456 1455 1455 1453 1453 1452 1451 1449 1447 1446 1446 1448 1450 1452 1454 1455 1459 1462 1466 1468 1470 1473 1476 1478 1478 1485 1485 1489 1492 1500 1502
Wind_Speed
19 13 16 17 16 16 7 10 9 7 3 6 8 11 7 10 16 16 16 17 19 18 18 18 19 18 18 18 19 19 18 21 24 22 20 17 18 16 15 13 13 10 9 10
14 18 17 15 15 13 9 13 12 8 1 9 12 15 13 11 13 18 19 19 20 21 21 20 21 21 20 20 20 20 18 20 23 24 21 20 18 17 16 13 15 13 11 11
18 8 17 18 11 12 14 15 13 10 9 13 17 15 15 11 12 13 18 20 20 23 23 23 23 23 21 22 22 21 20 18 22 20 22 21 20 17 19 14 18 14 12 11
14 18 8 15 14 14 16 12 13 12 9 10 2 10 7 8 14 14 15 20 21 22 24 25 25 25 24 23 22 21 21 21 21 21 22 24 20 17 21 16 14 15 12 11
14 13 15 14 15 15 19 15 12 12 13 14 16 9 10 7 10 13 21 21 22 23 26 28 28 26 25 24 23 23 22 22 23 25 22 20 21 17 16 18 16 16 13 12
17 6 9 14 14 14 8 8 14 13 13 13 18 14 11 7 3 3 5 17 19 19 24 27 28 27 26 25 24 24 24 23 23 26 25 26 22 22 16 18 17 13 15 12
17 19 15 14 11 13 15 14 10 11 10 12 15 7 5 10 3 8 9 13 11 16 20 27 31 31 29 28 26 25 26 25 24 25 27 25 24 23 20 18 19 18 17 16
11 15 22 17 17 10 12 16 12 10 11 9 9 5 4 5 4 10 12 11 10 8 17 25 31 33 31 29 28 27 27 27 26 25 27 30 29 23 21 21 19 17 15 13
7 9 7 12 16 15 15 14 16 18 18 13 11 11 11 8 3 8 10 15 10 6 8 21 30 33 33 32 30 30 30 28 27 26 26 28 29 28 24 24 23 18 17 16
10 11 9 9 12 13 14 15 11 12 15 15 11 7 10 8 1 5 3 7 8 6 7 16 27 33 34 33 31 29 29 29 28 27 26 26 26 28 28 28 29 22 23 22
17 12 8 11 14 15 10 13 14 17 12 12 12 9 11 4 3 6 6 5 6 4 8 16 25 31 33 32 31 30 29 28 27 27 26 25 25 25 26 25 25 29 23 22
18 11 14 18 13 17 17 15 13 11 17 11 13 12 16 4 1 9 9 9 4 6 9 18 24 30 32 32 32 30 30 28 28 28 30 28 25 24 23 23 23 23 25 24
12 11 15 16 14 17 12 16 17 16 16 17 12 10 4 8 8 9 9 4 6 8 10 19 24 30 32 32 32 31 31 30 26 27 29 27 25 24 24 23 23 24 23 23
6 13 16 13 16 8 8 11 18 18 14 14 15 17 14 12 9 10 9 4 7 8 12 20 24 29 31 31 31 31 32 30 30 28 28 29 27 26 24 24 24 23 24 23
11 19 19 21 21 20 18 13 15 14 15 15 18 20 15 13 7 10 5 3 3 5 12 21 23 28 29 29 31 31 31 32 31 32 28 32 30 28 26 25 26 24 23 23
17 17 18 21 20 19 22 20 21 21 20 21 21 20 17 23 20 14 10 14 7 4 10 16 20 24 28 30 31 32 32 32 33 34 32 30 32 30 30 29 28 26 22 21
13 15 16 20 21 22 23 23 23 23 22 19 21 20 17 16 15 16 7 10 6 6 7 13 17 21 25 27 28 28 31 30 32 34 33 29 30 28 27 26 27 26 23 20
16 18 12 16 19 22 18 18 18 18 20 17 18 19 21 18 8 8 10 8 7 4 6 12 15 18 21 23 25 25 25 28 31 30 27 26 25 25 24 23 22 21 21 20
17 16 15 16 17 24 21 13 13 18 17 14 17 18 12 17 9 11 3 7 7 5 4 11 14 16 18 20 22 23 22 23 23 23 24 23 24 23 23 22 20 16 22 22
21 19 15 15 21 26 17 12 8 14 15 13 19 8 8 10 10 5 10 9 8 5 3 9 13 15 16 17 19 21 20 20 19 19 20 20 22 23 23 28 28 27 22 18
10 11 17 17 19 21 20 21 14 12 8 7 8 8 8 7 11 15 13 11 9 4 5 9 13 13 15 16 18 19 20 25 26 26 27 28 27 30 30 28 25 22 16 12
15 13 13 13 20 26 18 21 19 1 3 2 2 4 7 9 11 11 12 11 9 5 6 11 14 15 14 15 18 19 20 23 22 23 24 25 28 28 28 24 19 16 13 11
14 16 15 16 9 9 13 11 1 7 5 5 4 8 8 11 11 11 12 11 9 5 7 11 15 15 14 13 14 16 17 18 19 19 20 23 27 23 20 15 15 13 10 4
14 6 10 13 15 16 11 17 8 8 8 5 7 12 13 13 13 13 12 11 11 6 8 12 14 15 15 14 13 13 18 18 16 14 15 18 18 18 19 16 12 9 7 2
13 9 12 12 20 28 26 17 14 9 6 8 14 16 16 15 14 13 13 12 11 8 8 12 12 15 17 17 17 18 21 22 20 22 21 20 16 13 13 12 15 7 7 12
20 16 13 15 16 17 14 21 16 14 18 17 20 21 20 18 17 14 14 12 12 10 8 13 14 16 18 17 19 21 22 21 21 23 23 20 19 19 15 13 10 8 14 14
Wind_Direction
203 219 229 235 223 274 324 294 285 259 101 291 288 295 278 201 195 206 212 201 194 197 191 189 190 187 185 184 182 183 191 206 207 198 188 192 191 193 187 187 187 187 179 193
214 230 242 242 259 256 263 251 255 251 186 269 299 297 275 177 201 207 208 207 206 198 195 191 193 194 193 191 189 187 189 207 197 200 190 190 194 192 186 189 195 182 201 194
235 219 211 249 238 249 246 263 274 293 329 284 266 268 243 174 186 207 209 216 212 203 201 194 197 197 196 196 194 193 191 199 200 181 184 190 194 191 188 193 202 197 201 209
232 253 230 255 229 250 249 244 250 270 269 274 101 300 287 200 186 191 214 210 214 211 203 199 200 199 199 198 197 195 192 190 191 184 188 194 193 194 195 195 205 199 209 208
232 225 241 232 246 240 256 271 282 271 259 268 263 254 264 168 232 216 191 208 210 210 210 204 201 201 201 198 197 195 192 192 190 193 193 195 188 191 194 199 208 214 222 213
258 237 251 250 242 245 260 253 257 257 249 254 251 243 259 215 107 224 258 179 194 209 210 208 204 201 202 197 196 195 192 197 190 195 194 190 204 198 199 201 199 205 212 226
224 239 219 237 250 229 235 240 242 224 224 249 252 247 306 327 249 232 269 218 211 192 209 206 203 201 200 196 195 194 194 194 193 195 200 200 201 193 207 207 207 210 215 218
208 214 213 208 229 233 222 232 250 254 250 270 101 228 245 206 259 277 264 241 223 224 199 206 203 201 198 198 196 196 197 194 197 200 205 207 205 207 203 210 206 216 228 229
234 235 116 202 205 229 234 216 249 275 278 276 276 283 272 223 287 271 239 223 205 207 234 194 200 200 196 198 197 196 200 197 199 201 207 212 215 209 215 214 217 214 218 226
265 269 180 188 239 220 245 266 236 229 262 271 282 283 276 169 275 337 270 198 194 191 221 203 198 198 198 198 197 198 199 199 199 200 205 210 213 219 211 217 220 226 228 226
236 257 262 175 202 237 188 234 248 272 270 260 252 245 81 72 219 290 280 219 232 189 217 202 196 196 197 197 197 198 199 200 199 201 207 207 211 215 219 217 224 228 226 224
222 249 239 248 224 223 247 268 217 234 237 260 286 290 306 27 339 343 309 281 214 225 233 196 194 194 195 197 197 198 199 200 202 204 205 213 214 213 219 220 222 226 226 226
236 226 250 255 245 226 234 244 258 268 247 254 276 263 199 163 199 255 258 291 194 237 209 189 190 192 193 196 197 198 198 199 203 204 209 207 210 214 214 223 221 226 229 229
284 255 251 262 242 352 305 229 254 257 259 261 249 257 275 274 284 308 303 31 306 208 202 189 190 192 194 194 195 198 199 200 200 203 206 208 210 213 216 216 226 220 230 231
238 254 263 271 274 282 284 256 267 277 282 276 285 291 297 305 292 257 347 299 279 239 204 192 192 190 192 193 195 198 201 200 201 206 208 213 215 213 214 219 221 228 224 230
248 251 268 273 273 273 278 269 274 262 258 263 269 271 279 291 301 306 311 305 360 293 210 203 198 194 195 196 196 198 198 205 203 208 215 214 219 218 216 216 221 225 224 225
231 256 257 257 260 255 250 253 259 269 269 263 264 263 264 271 261 256 302 345 318 303 210 202 201 198 199 200 201 201 201 201 205 211 213 210 219 219 217 217 220 224 225 227
257 267 264 267 276 260 263 269 279 271 277 274 283 269 268 276 308 338 13 349 326 284 231 201 199 197 197 199 202 201 201 200 205 207 209 210 210 212 211 213 214 221 225 232
248 257 256 258 256 266 263 263 267 269 261 261 269 277 302 301 322 269 68 326 334 318 235 200 195 192 190 191 193 193 194 197 200 205 206 209 202 208 206 209 211 214 223 222
241 242 249 248 256 259 270 288 347 328 285 270 275 301 301 326 277 58 347 329 323 317 222 191 187 183 178 178 181 181 182 187 195 199 203 201 202 204 195 202 207 215 217 219
235 238 258 251 249 256 269 281 297 255 259 11 358 1 340 296 325 325 324 323 319 292 223 185 183 178 174 173 175 173 177 188 194 195 194 194 195 198 197 204 217 221 201 216
248 230 254 248 258 262 269 258 239 204 60 26 340 310 302 305 307 315 326 320 322 290 203 188 185 180 174 170 176 174 190 195 200 204 200 199 199 206 209 218 214 198 197 214
247 257 273 271 269 20 328 318 32 308 293 269 302 304 304 304 306 318 318 323 327 293 210 191 187 188 174 176 179 179 195 197 206 209 206 210 216 221 221 204 207 191 178 148
291 301 283 328 269 259 194 297 254 269 266 272 294 294 299 297 304 302 309 314 317 304 220 196 192 190 175 172 171 181 177 174 178 181 187 197 195 184 175 174 161 157 118 173
286 258 247 254 279 290 273 249 255 278 244 280 284 279 278 290 291 299 294 297 302 301 230 203 201 191 173 164 163 164 164 158 157 154 151 148 147 155 152 143 145 161 181 200
258 265 265 270 265 267 279 288 289 284 280 276 275 277 273 276 276 282 286 280 287 283 240 205 200 196 177 174 169 168 164 163 164 162 165 164 162 159 161 163 203 196 191 189